#�ϑ�����,���ϕ���,���ϕ���,�ő啗��,�ő啗����������,�ő�u�ԕ���,�ő�u�ԕ�����������
#(�N����),(m/s)   ,(16����),(m/s)   ,(16����)        ,(m/s)       ,(16����)            
2016/5/16 0:01,2.7,5,2.7,4,4.5,4
2016/5/16 0:02,2.8,4,2.8,4,4.2,3
2016/5/16 0:03,2.8,4,2.8,4,5.4,3
2016/5/16 0:04,2.9,4,2.9,4,3.7,4
2016/5/16 0:05,3.1,4,3.1,4,6.1,3
2016/5/16 0:06,3.2,4,3.2,4,5.1,5
2016/5/16 0:07,3.2,4,3.2,4,5,5
2016/5/16 0:08,3,4,3.2,4,3.6,3
2016/5/16 0:09,3.1,4,3.1,4,3.3,6
2016/5/16 0:10,3.1,4,3.1,4,5.1,4
2016/5/16 0:11,3.1,4,3.2,4,6.1,5
2016/5/16 0:12,3,4,3.1,4,2.6,5
2016/5/16 0:13,3,4,3,4,5.5,3
2016/5/16 0:14,3.1,4,3.1,4,5.4,4
2016/5/16 0:15,2.9,4,3.1,4,4.7,4
2016/5/16 0:16,2.9,4,2.9,4,4.9,3
2016/5/16 0:17,3,4,3,4,6,3
2016/5/16 0:18,3.1,4,3.1,4,5.6,4
2016/5/16 0:19,3.1,4,3.1,4,5.7,2
2016/5/16 0:20,3.3,3,3.3,4,6.1,3
2016/5/16 0:21,3.2,3,3.3,4,5.5,2
2016/5/16 0:22,3.4,3,3.4,3,6.5,2
2016/5/16 0:23,3.3,3,3.4,3,4.5,3
2016/5/16 0:24,3.3,3,3.3,3,5.8,2
2016/5/16 0:25,3.4,3,3.4,3,6,4
2016/5/16 0:26,3.3,3,3.4,3,4.4,3
2016/5/16 0:27,3.2,3,3.3,3,4.8,3
2016/5/16 0:28,3.2,3,3.2,3,3.9,3
2016/5/16 0:29,3.1,3,3.2,3,3.6,2
2016/5/16 0:30,3,3,3.1,3,5.4,4
2016/5/16 0:31,3,3,3,3,4.8,4
2016/5/16 0:32,2.9,4,3,3,3.5,4
2016/5/16 0:33,2.8,4,2.9,3,3.7,2
2016/5/16 0:34,2.7,4,2.8,3,5.1,4
2016/5/16 0:35,2.7,4,2.7,3,5,4
2016/5/16 0:36,2.7,4,2.8,3,4.1,6
2016/5/16 0:37,2.7,4,2.7,3,4.4,3
2016/5/16 0:38,2.8,4,2.8,3,6.3,3
2016/5/16 0:39,3.1,4,3.1,3,5.4,4
2016/5/16 0:40,3.1,4,3.2,4,5.2,3
2016/5/16 0:41,3.2,4,3.2,4,6.8,4
2016/5/16 0:42,3.4,4,3.4,4,7.1,3
2016/5/16 0:43,3.8,4,3.8,4,6.2,3
2016/5/16 0:44,3.8,4,3.9,4,8.1,3
2016/5/16 0:45,3.9,4,3.9,4,6.3,3
2016/5/16 0:46,4,3,4,4,5.6,4
2016/5/16 0:47,4,4,4.1,3,4.9,5
2016/5/16 0:48,4,4,4.1,3,5,4
2016/5/16 0:49,3.8,4,3.9,3,4.2,4
2016/5/16 0:50,3.7,4,3.8,3,4.4,5
2016/5/16 0:51,3.6,4,3.7,3,3.9,4
2016/5/16 0:52,3.4,4,3.6,3,4.7,5
2016/5/16 0:53,3.2,4,3.4,3,4.1,3
2016/5/16 0:54,3.1,4,3.2,3,4.1,4
2016/5/16 0:55,2.8,4,3.1,3,2.7,5
2016/5/16 0:56,2.6,4,2.8,3,3.2,6
2016/5/16 0:57,2.6,4,2.6,4,4.2,5
2016/5/16 0:58,2.6,4,2.6,4,6.3,5
2016/5/16 0:59,2.8,4,2.8,4,5.6,6
2016/5/16 1:00,2.8,4,2.8,4,5.5,5
2016/5/16 1:01,2.7,4,2.8,4,3.1,2
2016/5/16 1:02,2.7,4,2.7,4,3.6,4
2016/5/16 1:03,2.8,4,2.8,4,5.6,3
2016/5/16 1:04,2.8,4,2.8,4,4.2,3
2016/5/16 1:05,2.9,4,2.9,4,4.7,3
2016/5/16 1:06,3.3,4,3.3,4,7.2,5
2016/5/16 1:07,3.4,4,3.4,4,6.2,5
2016/5/16 1:08,3.3,4,3.4,4,4.9,4
2016/5/16 1:09,3.3,4,3.3,4,5.5,5
2016/5/16 1:10,3.4,4,3.4,4,5.8,5
2016/5/16 1:11,3.5,4,3.5,4,3.9,5
2016/5/16 1:12,3.5,4,3.5,4,3.9,6
2016/5/16 1:13,3.4,5,3.5,4,4.2,6
2016/5/16 1:14,3.5,5,3.5,4,4.3,4
2016/5/16 1:15,3.4,5,3.4,4,3.1,5
2016/5/16 1:16,3.1,5,3.4,4,3,5
2016/5/16 1:17,2.8,5,3,4,3.6,4
2016/5/16 1:18,2.8,5,2.8,4,3.2,4
2016/5/16 1:19,2.6,5,2.7,4,3,4
2016/5/16 1:20,2.6,5,2.6,4,5.5,5
2016/5/16 1:21,2.6,5,2.6,4,4.3,5
2016/5/16 1:22,2.6,5,2.7,4,3.9,5
2016/5/16 1:23,2.5,5,2.6,5,2.7,5
2016/5/16 1:24,2.4,5,2.5,5,2.4,6
2016/5/16 1:25,2.3,5,2.4,5,2.4,3
2016/5/16 1:26,2.3,5,2.3,5,2.5,5
2016/5/16 1:27,2.4,5,2.4,5,3.5,4
2016/5/16 1:28,2.4,5,2.4,5,3.7,5
2016/5/16 1:29,2.4,5,2.4,5,3.6,5
2016/5/16 1:30,2.2,5,2.4,5,2.5,6
2016/5/16 1:31,2.1,5,2.2,5,3,5
2016/5/16 1:32,2.1,5,2.1,5,3.7,6
2016/5/16 1:33,2.2,5,2.2,5,4.8,6
2016/5/16 1:34,2.2,5,2.2,5,3.3,5
2016/5/16 1:35,2.3,5,2.3,5,4.8,7
2016/5/16 1:36,2.4,5,2.4,5,4.8,7
2016/5/16 1:37,2.4,6,2.5,5,3.6,6
2016/5/16 1:38,2.3,6,2.4,5,3.5,5
2016/5/16 1:39,2.3,6,2.3,5,3.9,4
2016/5/16 1:40,2.4,6,2.4,5,3.1,5
2016/5/16 1:41,2.4,6,2.4,5,3.6,4
2016/5/16 1:42,2.5,5,2.5,5,5.2,3
2016/5/16 1:43,2.7,5,2.7,5,6.7,5
2016/5/16 1:44,2.9,5,2.9,5,6.7,6
2016/5/16 1:45,3.1,5,3.1,5,7.6,5
2016/5/16 1:46,3.1,5,3.2,5,6.9,6
2016/5/16 1:47,3.3,5,3.3,5,5,5
2016/5/16 1:48,3.4,5,3.4,5,4.5,4
2016/5/16 1:49,3.4,5,3.4,5,4.7,5
2016/5/16 1:50,3.4,5,3.5,5,5.2,5
2016/5/16 1:51,3.3,5,3.4,5,3.1,5
2016/5/16 1:52,3.3,5,3.3,5,4.4,6
2016/5/16 1:53,3,5,3.2,5,4.1,5
2016/5/16 1:54,2.8,5,3,5,3.7,5
2016/5/16 1:55,2.7,5,2.8,5,4.7,6
2016/5/16 1:56,2.7,5,2.7,5,3.8,6
2016/5/16 1:57,2.7,6,2.7,5,5.4,6
2016/5/16 1:58,2.7,6,2.7,5,4.5,6
2016/5/16 1:59,2.8,6,2.8,5,4.2,5
2016/5/16 2:00,2.9,5,2.9,5,6.7,6
2016/5/16 2:01,3.1,5,3.1,5,5.7,5
2016/5/16 2:02,3.2,5,3.2,5,6.3,4
2016/5/16 2:03,3.4,5,3.4,5,5.4,6
2016/5/16 2:04,3.4,6,3.4,5,4.4,5
2016/5/16 2:05,3.5,6,3.5,6,5,6
2016/5/16 2:06,3.5,5,3.5,6,4.9,5
2016/5/16 2:07,3.4,5,3.5,6,4.1,7
2016/5/16 2:08,3.4,5,3.4,6,5.8,4
2016/5/16 2:09,3.3,5,3.4,6,5.1,5
2016/5/16 2:10,3.3,5,3.3,6,6.1,5
2016/5/16 2:11,3.2,5,3.3,6,5,6
2016/5/16 2:12,3.1,5,3.2,6,3.5,5
2016/5/16 2:13,3,5,3.1,6,6.1,5
2016/5/16 2:14,3.1,5,3.1,6,6.7,4
2016/5/16 2:15,3.1,5,3.1,6,7,5
2016/5/16 2:16,3.3,5,3.3,5,8.3,5
2016/5/16 2:17,3.4,5,3.4,5,5,6
2016/5/16 2:18,3.4,5,3.4,5,5.4,6
2016/5/16 2:19,3.6,5,3.6,5,6.8,6
2016/5/16 2:20,3.5,5,3.6,5,5.8,5
2016/5/16 2:21,3.6,5,3.6,5,8.9,6
2016/5/16 2:22,3.8,5,3.8,5,7.4,6
2016/5/16 2:23,3.9,5,3.9,5,4.8,4
2016/5/16 2:24,3.9,5,3.9,5,6.4,5
2016/5/16 2:25,3.8,5,4,5,6.2,5
2016/5/16 2:26,3.6,5,3.9,5,5.8,7
2016/5/16 2:27,3.6,5,3.6,5,6.4,6
2016/5/16 2:28,3.6,5,3.6,5,6.7,6
2016/5/16 2:29,3.5,5,3.7,5,4.7,5
2016/5/16 2:30,3.6,5,3.6,5,5,5
2016/5/16 2:31,3.4,5,3.6,5,3.7,4
2016/5/16 2:32,3.2,5,3.4,5,5,2
2016/5/16 2:33,3.2,5,3.2,5,4.4,4
2016/5/16 2:34,3.3,5,3.3,5,7,5
2016/5/16 2:35,3.3,5,3.3,5,6.3,5
2016/5/16 2:36,3.5,5,3.5,5,6.3,5
2016/5/16 2:37,3.5,5,3.6,5,5.8,5
2016/5/16 2:38,3.5,5,3.5,5,5.4,6
2016/5/16 2:39,3.7,5,3.7,5,6.4,5
2016/5/16 2:40,3.7,5,3.7,5,6.4,5
2016/5/16 2:41,3.8,5,3.8,5,4.4,5
2016/5/16 2:42,3.9,5,3.9,5,5.8,5
2016/5/16 2:43,3.8,5,3.9,5,4.9,4
2016/5/16 2:44,3.7,5,3.8,5,5.8,4
2016/5/16 2:45,3.7,5,3.7,5,5.2,5
2016/5/16 2:46,3.5,5,3.7,5,4.9,6
2016/5/16 2:47,3.4,5,3.5,5,4.7,4
2016/5/16 2:48,3.6,5,3.6,5,7.9,5
2016/5/16 2:49,3.6,5,3.6,5,8.2,6
2016/5/16 2:50,3.8,5,3.8,5,8.9,4
2016/5/16 2:51,3.9,5,3.9,5,8.1,7
2016/5/16 2:52,3.9,5,3.9,5,5.6,6
2016/5/16 2:53,4.1,5,4.1,5,6.3,6
2016/5/16 2:54,4.1,5,4.1,5,5.6,7
2016/5/16 2:55,4,5,4,5,5.4,6
2016/5/16 2:56,4,5,4,5,4.9,6
2016/5/16 2:57,4.1,6,4.1,5,4.9,5
2016/5/16 2:58,4,6,4.2,6,5.5,6
2016/5/16 2:59,3.8,6,4,6,4.5,5
2016/5/16 3:00,3.5,6,3.8,6,4.5,7
2016/5/16 3:01,3.4,6,3.5,6,6.7,7
2016/5/16 3:02,3.5,6,3.5,6,6.1,6
2016/5/16 3:03,3.3,6,3.4,6,6,5
2016/5/16 3:04,3.5,6,3.5,6,8.1,5
2016/5/16 3:05,3.5,6,3.5,6,4.5,5
2016/5/16 3:06,3.6,6,3.6,6,6.3,5
2016/5/16 3:07,3.5,6,3.6,6,3.1,6
2016/5/16 3:08,3.3,6,3.5,6,3.8,5
2016/5/16 3:09,3.3,6,3.3,6,3.5,6
2016/5/16 3:10,3.2,6,3.3,6,4.8,10
2016/5/16 3:11,3.1,5,3.2,6,4.7,6
2016/5/16 3:12,3,6,3.1,6,3.7,6
2016/5/16 3:13,2.8,6,3,6,2,6
2016/5/16 3:14,2.5,6,2.7,6,5.1,5
2016/5/16 3:15,2.5,6,2.5,6,4.7,4
2016/5/16 3:16,2.2,6,2.5,6,3,8
2016/5/16 3:17,2.2,6,2.2,6,4.4,6
2016/5/16 3:18,2.2,6,2.2,6,4.1,4
2016/5/16 3:19,2.1,6,2.2,6,3.9,4
2016/5/16 3:20,2.2,6,2.2,6,4.4,5
2016/5/16 3:21,2.3,6,2.3,5,6.7,5
2016/5/16 3:22,2.4,6,2.4,6,7.5,5
2016/5/16 3:23,2.7,5,2.7,6,5,6
2016/5/16 3:24,2.8,6,2.8,5,4.9,6
2016/5/16 3:25,2.7,6,2.7,5,2.9,5
2016/5/16 3:26,2.7,5,2.7,5,2.5,4
2016/5/16 3:27,2.7,5,2.7,5,2.7,7
2016/5/16 3:28,2.7,5,2.7,5,4.1,5
2016/5/16 3:29,2.7,6,2.7,5,3,5
2016/5/16 3:30,2.6,5,2.7,5,4.3,8
2016/5/16 3:31,2.4,5,2.6,5,2.9,5
2016/5/16 3:32,2.3,5,2.4,5,3.7,6
2016/5/16 3:33,2.1,5,2.2,5,3,6
2016/5/16 3:34,1.9,5,2.1,6,4.2,7
2016/5/16 3:35,2.1,5,2.1,6,5.5,6
2016/5/16 3:36,2.4,5,2.4,5,7.5,6
2016/5/16 3:37,2.6,5,2.6,5,6.3,7
2016/5/16 3:38,2.7,6,2.7,5,4.9,7
2016/5/16 3:39,2.8,6,2.8,6,5.7,6
2016/5/16 3:40,3,6,3,6,6.1,6
2016/5/16 3:41,3.1,6,3.1,6,4.5,6
2016/5/16 3:42,3,6,3.1,6,4.3,6
2016/5/16 3:43,3.1,6,3.1,6,3.6,6
2016/5/16 3:44,3.2,6,3.2,6,2.7,10
2016/5/16 3:45,3,6,3.2,6,2.9,5
2016/5/16 3:46,2.8,6,3,6,4.5,6
2016/5/16 3:47,2.7,6,2.8,6,3.1,4
2016/5/16 3:48,2.6,6,2.6,6,3.7,6
2016/5/16 3:49,2.6,6,2.6,6,7.6,4
2016/5/16 3:50,2.7,6,2.7,6,8.3,6
2016/5/16 3:51,2.8,6,2.8,6,5.4,4
2016/5/16 3:52,3.1,6,3.1,6,7.8,4
2016/5/16 3:53,3.2,6,3.2,6,6.2,4
2016/5/16 3:54,3.3,6,3.3,6,4.2,4
2016/5/16 3:55,3.6,6,3.6,6,8.6,5
2016/5/16 3:56,4,6,4,6,11.7,5
2016/5/16 3:57,4.3,6,4.3,6,9,6
2016/5/16 3:58,4.3,6,4.4,6,4.7,5
2016/5/16 3:59,4.2,6,4.3,6,4.8,5
2016/5/16 4:00,4.2,6,4.2,6,7.2,6
2016/5/16 4:01,4.4,6,4.4,6,7.1,6
2016/5/16 4:02,4.2,6,4.4,6,5.1,7
2016/5/16 4:03,4.2,6,4.2,6,6.7,6
2016/5/16 4:04,4.3,6,4.3,6,5.5,5
2016/5/16 4:05,4.2,6,4.4,6,5.2,5
2016/5/16 4:06,3.9,6,4.2,6,5.8,5
2016/5/16 4:07,3.6,6,3.8,6,5,4
2016/5/16 4:08,3.8,6,3.8,6,8.5,4
2016/5/16 4:09,3.9,6,3.9,6,8.1,6
2016/5/16 4:10,3.8,6,3.9,6,7.8,6
2016/5/16 4:11,3.7,6,3.8,6,7,6
2016/5/16 4:12,3.7,6,3.8,6,6.5,6
2016/5/16 4:13,3.7,6,3.8,6,6.3,7
2016/5/16 4:14,3.6,6,3.7,6,3.9,7
2016/5/16 4:15,3.5,6,3.5,6,6.9,5
2016/5/16 4:16,3.6,5,3.6,6,7.2,4
2016/5/16 4:17,3.8,5,3.8,6,7.6,6
2016/5/16 4:18,3.6,6,3.8,6,3.8,7
2016/5/16 4:19,3.5,6,3.6,6,3.7,6
2016/5/16 4:20,3.2,6,3.5,6,3.8,8
2016/5/16 4:21,3,6,3.2,6,4.7,7
2016/5/16 4:22,3.1,6,3.1,6,5,5
2016/5/16 4:23,3,6,3,6,5.5,5
2016/5/16 4:24,3.1,6,3.1,6,4.4,5
2016/5/16 4:25,3.2,6,3.2,6,7.8,5
2016/5/16 4:26,3.3,6,3.3,6,8.5,6
2016/5/16 4:27,3.2,6,3.3,5,7.6,8
2016/5/16 4:28,3.4,6,3.4,6,8.3,6
2016/5/16 4:29,3.7,6,3.7,6,7.6,5
2016/5/16 4:30,3.7,6,3.7,6,4.9,8
2016/5/16 4:31,3.7,6,3.7,6,3.5,6
2016/5/16 4:32,3.6,6,3.7,6,3.8,7
2016/5/16 4:33,3.6,6,3.6,6,5.4,6
2016/5/16 4:34,3.7,6,3.7,6,5.5,5
2016/5/16 4:35,3.6,6,3.7,6,6.8,6
2016/5/16 4:36,3.5,6,3.6,6,5.7,4
2016/5/16 4:37,3.4,6,3.4,6,4.4,3
2016/5/16 4:38,3.2,6,3.4,6,7.1,5
2016/5/16 4:39,3.1,6,3.2,6,7.6,6
2016/5/16 4:40,3.3,6,3.3,6,6.2,5
2016/5/16 4:41,3.6,6,3.6,6,6.4,6
2016/5/16 4:42,3.8,6,3.8,6,6.3,6
2016/5/16 4:43,3.9,6,3.9,6,8.5,5
2016/5/16 4:44,4.2,6,4.2,6,8.7,7
2016/5/16 4:45,4.2,6,4.3,6,7,6
2016/5/16 4:46,4.4,6,4.4,6,7.8,5
2016/5/16 4:47,4.6,6,4.6,6,7.2,5
2016/5/16 4:48,4.6,6,4.6,6,6.3,5
2016/5/16 4:49,4.8,6,4.8,6,9.7,5
2016/5/16 4:50,4.9,6,4.9,6,9.9,5
2016/5/16 4:51,5,6,5,6,8.9,6
2016/5/16 4:52,4.9,6,5,6,8.9,6
2016/5/16 4:53,4.7,6,4.9,6,3.9,8
2016/5/16 4:54,4.4,6,4.6,6,4.7,6
2016/5/16 4:55,4,6,4.3,6,2.9,6
2016/5/16 4:56,3.9,6,4,6,6.8,5
2016/5/16 4:57,3.6,6,3.8,6,3.8,5
2016/5/16 4:58,3.4,6,3.6,6,3.7,6
2016/5/16 4:59,3.1,6,3.4,6,5.8,6
2016/5/16 5:00,2.8,6,3.1,6,8.2,8
2016/5/16 5:01,2.8,6,2.9,6,8.1,9
2016/5/16 5:02,2.8,6,2.8,6,6.3,6
2016/5/16 5:03,2.9,6,2.9,6,5.7,6
2016/5/16 5:04,2.9,6,2.9,5,5,6
2016/5/16 5:05,2.9,6,2.9,6,3.2,6
2016/5/16 5:06,2.7,7,2.9,6,3,6
2016/5/16 5:07,2.8,7,2.8,6,4.4,6
2016/5/16 5:08,3,7,3,6,7.6,8
2016/5/16 5:09,3,6,3,6,8.5,5
2016/5/16 5:10,3.1,6,3.2,6,7.6,5
2016/5/16 5:11,3,6,3.1,6,5.8,6
2016/5/16 5:12,3.1,6,3.1,6,6.2,6
2016/5/16 5:13,3.2,6,3.2,6,8.3,6
2016/5/16 5:14,3.6,6,3.6,6,9.4,7
2016/5/16 5:15,3.8,6,3.8,6,7.1,7
2016/5/16 5:16,3.8,6,3.9,6,7,8
2016/5/16 5:17,4,6,4,6,7.5,6
2016/5/16 5:18,4,6,4.1,6,6.8,6
2016/5/16 5:19,4.1,6,4.2,6,6.4,6
2016/5/16 5:20,4.2,6,4.2,6,7.9,6
2016/5/16 5:21,4.3,6,4.3,6,7,6
2016/5/16 5:22,4.3,6,4.3,6,7.5,6
2016/5/16 5:23,4,6,4.2,6,4.2,7
2016/5/16 5:24,3.8,6,4,6,8.2,6
2016/5/16 5:25,4,6,4,6,7.8,5
2016/5/16 5:26,4.2,6,4.2,6,7.4,5
2016/5/16 5:27,4.3,6,4.4,6,6.5,5
2016/5/16 5:28,4.3,6,4.4,6,6.9,6
2016/5/16 5:29,4.3,6,4.3,6,4.9,4
2016/5/16 5:30,3.9,6,4.2,6,3.2,6
2016/5/16 5:31,3.8,6,3.9,6,4.3,5
2016/5/16 5:32,3.7,6,3.8,6,5.2,5
2016/5/16 5:33,3.9,6,3.9,6,5.1,6
2016/5/16 5:34,3.8,6,3.9,6,5.5,6
2016/5/16 5:35,3.5,5,3.7,6,4.3,6
2016/5/16 5:36,3.3,6,3.5,6,4.4,6
2016/5/16 5:37,2.9,6,3.2,6,2.4,6
2016/5/16 5:38,2.8,6,2.9,6,5.7,7
2016/5/16 5:39,3,6,3,6,7.6,5
2016/5/16 5:40,3.2,6,3.2,6,6.4,4
2016/5/16 5:41,3.4,6,3.4,6,7.9,6
2016/5/16 5:42,3.6,6,3.6,6,7.7,5
2016/5/16 5:43,3.7,6,3.7,6,6.8,6
2016/5/16 5:44,3.7,6,3.7,6,5.6,6
2016/5/16 5:45,3.5,6,3.7,6,2.6,4
2016/5/16 5:46,3.7,6,3.7,6,6.4,5
2016/5/16 5:47,3.9,6,3.9,6,6.4,9
2016/5/16 5:48,3.9,6,3.9,6,7.7,8
2016/5/16 5:49,3.8,6,3.9,6,4.5,5
2016/5/16 5:50,3.9,6,3.9,6,8.7,6
2016/5/16 5:51,3.7,6,3.8,6,7.1,4
2016/5/16 5:52,3.8,6,3.8,6,9.1,6
2016/5/16 5:53,3.9,6,3.9,6,7.9,7
2016/5/16 5:54,4,6,4,6,7.2,6
2016/5/16 5:55,4.2,6,4.2,6,6.4,5
2016/5/16 5:56,4.2,6,4.2,6,6.2,4
2016/5/16 5:57,4.4,6,4.4,6,6.7,7
2016/5/16 5:58,4.4,6,4.4,6,5.2,5
2016/5/16 5:59,4.4,6,4.4,6,6.8,6
2016/5/16 6:00,4.5,6,4.5,6,10.5,6
2016/5/16 6:01,4.5,6,4.6,6,7.9,6
2016/5/16 6:02,4.2,6,4.5,6,4.3,6
2016/5/16 6:03,3.9,6,4.1,6,3.9,6
2016/5/16 6:04,3.8,6,3.9,6,5.5,5
2016/5/16 6:05,4.1,6,4.1,6,10.6,7
2016/5/16 6:06,4,6,4.1,6,6.5,7
2016/5/16 6:07,4,6,4,6,7.5,5
2016/5/16 6:08,4,6,4.1,6,6.3,6
2016/5/16 6:09,4,6,4,6,6.4,6
2016/5/16 6:10,3.8,6,4,6,6.1,5
2016/5/16 6:11,3.6,6,3.7,6,4.9,7
2016/5/16 6:12,3.8,6,3.8,6,6.2,5
2016/5/16 6:13,3.9,6,3.9,6,6.3,5
2016/5/16 6:14,4,6,4,6,6,7
2016/5/16 6:15,3.6,6,4,6,6.7,8
2016/5/16 6:16,3.4,6,3.6,6,4.1,8
2016/5/16 6:17,3.2,6,3.4,6,5.5,3
2016/5/16 6:18,3.3,6,3.3,6,6.5,6
2016/5/16 6:19,3.3,6,3.4,6,6.2,4
2016/5/16 6:20,3.4,6,3.4,6,7.4,6
2016/5/16 6:21,3.7,6,3.7,6,7.7,4
2016/5/16 6:22,3.7,6,3.7,6,7,5
2016/5/16 6:23,3.5,6,3.6,6,4.2,6
2016/5/16 6:24,3.2,5,3.4,6,3.3,4
2016/5/16 6:25,3.3,5,3.3,6,4.8,3
2016/5/16 6:26,3.5,5,3.5,6,4.8,5
2016/5/16 6:27,3.5,5,3.5,6,4.9,6
2016/5/16 6:28,3.4,5,3.5,6,5.5,6
2016/5/16 6:29,3.3,5,3.4,6,4.3,6
2016/5/16 6:30,3.3,5,3.3,6,7.4,6
2016/5/16 6:31,3.2,5,3.3,6,5.4,6
2016/5/16 6:32,3.1,5,3.2,6,5.4,6
2016/5/16 6:33,3.1,5,3.1,5,3.6,6
2016/5/16 6:34,3.1,5,3.2,5,3.5,5
2016/5/16 6:35,3.1,5,3.1,5,4.7,5
2016/5/16 6:36,3.4,5,3.4,5,7.9,6
2016/5/16 6:37,3.5,5,3.5,5,6.4,6
2016/5/16 6:38,3.5,5,3.5,5,6.8,5
2016/5/16 6:39,3.5,5,3.5,5,6.1,5
2016/5/16 6:40,3.5,5,3.6,5,5.8,5
2016/5/16 6:41,3.5,5,3.5,5,6.7,5
2016/5/16 6:42,3.7,5,3.7,5,8.2,5
2016/5/16 6:43,3.8,5,3.8,5,6.3,4
2016/5/16 6:44,4,5,4,5,5.8,4
2016/5/16 6:45,4.1,5,4.1,5,6,5
2016/5/16 6:46,4,5,4.1,5,5.8,5
2016/5/16 6:47,4.1,5,4.1,5,8.6,6
2016/5/16 6:48,4.2,5,4.2,5,7.4,6
2016/5/16 6:49,4.2,5,4.2,5,6.4,7
2016/5/16 6:50,4.2,5,4.2,5,7.5,6
2016/5/16 6:51,4.3,5,4.4,5,7.5,7
2016/5/16 6:52,4.2,5,4.3,5,4.9,5
2016/5/16 6:53,4.4,5,4.4,5,7.2,5
2016/5/16 6:54,4.6,6,4.6,6,9.9,5
2016/5/16 6:55,4.4,6,4.6,6,4.1,6
2016/5/16 6:56,4.2,6,4.3,6,6.1,4
2016/5/16 6:57,4,6,4.2,6,5.7,4
2016/5/16 6:58,4.1,6,4.1,6,8.5,5
2016/5/16 6:59,4.2,6,4.2,6,9.5,7
2016/5/16 7:00,4.2,6,4.3,6,8.9,6
2016/5/16 7:01,4.1,6,4.2,6,6.4,5
2016/5/16 7:02,4.1,6,4.1,6,5.5,6
2016/5/16 7:03,3.9,6,4.1,6,4.9,7
2016/5/16 7:04,3.5,6,3.8,6,6.4,6
2016/5/16 7:05,3.9,6,3.9,6,11.3,6
2016/5/16 7:06,4.3,6,4.3,6,9.2,6
2016/5/16 7:07,4.3,6,4.4,6,6.4,6
2016/5/16 7:08,4.2,6,4.3,6,6,4
2016/5/16 7:09,4,6,4.1,6,5.4,5
2016/5/16 7:10,3.9,6,4,6,6.3,7
2016/5/16 7:11,3.9,6,3.9,6,6.4,7
2016/5/16 7:12,4,6,4,6,6.1,7
2016/5/16 7:13,4.2,6,4.2,6,6.5,8
2016/5/16 7:14,4.3,6,4.3,6,4.9,6
2016/5/16 7:15,4,6,4.2,6,6.1,7
2016/5/16 7:16,3.8,6,3.9,6,11.4,7
2016/5/16 7:17,4,6,4,6,10,7
2016/5/16 7:18,4.2,6,4.2,6,9,4
2016/5/16 7:19,4.3,6,4.3,6,8.1,6
2016/5/16 7:20,4.2,6,4.4,6,4.7,6
2016/5/16 7:21,4,6,4.2,6,3.8,6
2016/5/16 7:22,3.8,6,4,6,4.5,7
2016/5/16 7:23,3.7,6,3.8,6,8.3,6
2016/5/16 7:24,3.9,6,3.9,6,7.2,6
2016/5/16 7:25,4,6,4.1,6,9.3,6
2016/5/16 7:26,4.1,6,4.2,6,8.2,7
2016/5/16 7:27,4.1,6,4.2,6,9.9,6
2016/5/16 7:28,4.2,6,4.2,6,11.1,6
2016/5/16 7:29,4.3,6,4.3,6,10.1,6
2016/5/16 7:30,4.5,6,4.5,6,9.1,5
2016/5/16 7:31,4.9,6,4.9,6,11.5,6
2016/5/16 7:32,5.1,6,5.1,6,8.2,7
2016/5/16 7:33,5.2,6,5.3,6,7.4,4
2016/5/16 7:34,5.1,6,5.2,6,7.4,8
2016/5/16 7:35,5,6,5.1,6,6.9,6
2016/5/16 7:36,4.9,6,5.1,6,7.7,6
2016/5/16 7:37,4.7,6,4.9,6,6.8,5
2016/5/16 7:38,4.4,6,4.7,6,6.2,5
2016/5/16 7:39,4.1,6,4.4,6,4.4,5
2016/5/16 7:40,3.9,6,4.1,6,4.9,5
2016/5/16 7:41,3.8,6,3.9,6,8.7,6
2016/5/16 7:42,3.8,6,3.8,6,8.3,8
2016/5/16 7:43,3.8,6,3.9,6,9,8
2016/5/16 7:44,4,6,4,6,8.9,6
2016/5/16 7:45,3.9,6,4,6,6.5,6
2016/5/16 7:46,3.9,6,3.9,6,6.9,7
2016/5/16 7:47,4.1,6,4.2,6,10.1,6
2016/5/16 7:48,4.2,6,4.2,6,6.8,7
2016/5/16 7:49,4.5,6,4.5,6,7.8,7
2016/5/16 7:50,4.4,6,4.5,6,3.8,5
2016/5/16 7:51,4.4,6,4.5,6,7.7,5
2016/5/16 7:52,4.4,6,4.5,6,6.4,5
2016/5/16 7:53,4.4,6,4.4,6,6.7,5
2016/5/16 7:54,4.4,6,4.5,6,7.8,6
2016/5/16 7:55,4.5,6,4.5,6,8.9,7
2016/5/16 7:56,4.3,6,4.5,6,4.4,8
2016/5/16 7:57,4.1,6,4.3,6,5.2,8
2016/5/16 7:58,3.8,6,4.1,6,3.8,5
2016/5/16 7:59,3.5,6,3.8,6,3.7,6
2016/5/16 8:00,3.6,6,3.6,6,7.6,6
2016/5/16 8:01,3.6,6,3.7,6,8.1,7
2016/5/16 8:02,3.6,6,3.6,6,6,5
2016/5/16 8:03,3.6,6,3.6,6,7.1,8
2016/5/16 8:04,3.3,6,3.6,6,5.8,7
2016/5/16 8:05,3.2,6,3.3,6,5.2,4
2016/5/16 8:06,3.4,6,3.4,6,6.3,5
2016/5/16 8:07,3.5,6,3.5,6,7.4,6
2016/5/16 8:08,3.8,6,3.8,6,7.4,8
2016/5/16 8:09,4,6,4,6,7,8
2016/5/16 8:10,4.1,6,4.2,6,6.1,9
2016/5/16 8:11,4,6,4,6,7.4,6
2016/5/16 8:12,4.2,6,4.2,6,8.1,6
2016/5/16 8:13,4.4,6,4.4,6,9.9,6
2016/5/16 8:14,4.4,6,4.4,6,7.1,8
2016/5/16 8:15,4.4,6,4.4,6,5.1,5
2016/5/16 8:16,4.3,6,4.4,6,5.6,8
2016/5/16 8:17,4.3,6,4.4,6,6.9,5
2016/5/16 8:18,4.3,6,4.3,6,7.2,5
2016/5/16 8:19,4.3,6,4.3,6,7,6
2016/5/16 8:20,4.3,6,4.3,6,5.7,7
2016/5/16 8:21,4.3,6,4.3,6,7,5
2016/5/16 8:22,4.3,6,4.4,6,7,5
2016/5/16 8:23,3.9,6,4.3,6,5.2,7
2016/5/16 8:24,3.9,6,3.9,6,4.3,6
2016/5/16 8:25,3.8,6,3.9,6,5,6
2016/5/16 8:26,3.8,6,3.9,6,4.5,5
2016/5/16 8:27,3.9,6,3.9,6,8.5,5
2016/5/16 8:28,3.6,6,3.9,6,7,6
2016/5/16 8:29,3.8,6,3.8,6,10.9,6
2016/5/16 8:30,3.8,6,3.8,6,8.3,5
2016/5/16 8:31,3.7,6,3.9,6,6.7,7
2016/5/16 8:32,3.7,6,3.7,6,8.6,6
2016/5/16 8:33,3.7,6,3.7,6,8.6,8
2016/5/16 8:34,3.9,6,3.9,6,8.4,7
2016/5/16 8:35,4.4,7,4.4,7,12.6,8
2016/5/16 8:36,4.3,7,4.4,7,6.1,7
2016/5/16 8:37,4.2,7,4.3,7,6.1,6
2016/5/16 8:38,4.4,7,4.4,7,8.9,7
2016/5/16 8:39,4.2,7,4.4,7,8.1,8
2016/5/16 8:40,4.4,7,4.4,7,9.2,6
2016/5/16 8:41,4.6,7,4.6,7,7.1,6
2016/5/16 8:42,4.4,7,4.6,7,6.2,6
2016/5/16 8:43,4.3,7,4.5,7,6,8
2016/5/16 8:44,4.2,7,4.3,7,6.8,8
2016/5/16 8:45,4.1,7,4.2,7,7.6,6
2016/5/16 8:46,4.2,7,4.2,7,7.7,6
2016/5/16 8:47,4.2,7,4.3,7,7.2,8
2016/5/16 8:48,4.5,7,4.5,7,12.1,9
2016/5/16 8:49,4.6,7,4.6,7,8.5,8
2016/5/16 8:50,4.6,7,4.7,7,9,6
2016/5/16 8:51,4.7,7,4.7,7,10.6,8
2016/5/16 8:52,4.8,7,4.8,7,9.8,8
2016/5/16 8:53,5,7,5,7,8.7,7
2016/5/16 8:54,5.2,7,5.2,7,10.1,8
2016/5/16 8:55,5.1,7,5.2,7,10.2,8
2016/5/16 8:56,5,7,5,7,6.1,9
2016/5/16 8:57,4.9,7,5,7,7.7,8
2016/5/16 8:58,4.8,7,4.9,7,11.1,6
2016/5/16 8:59,4.6,7,4.7,7,8.5,8
2016/5/16 9:00,4.6,7,4.7,7,7,8
2016/5/16 9:01,4.6,7,4.7,7,10,6
2016/5/16 9:02,4.7,7,4.7,7,9,6
2016/5/16 9:03,4.6,7,4.8,7,7.4,5
2016/5/16 9:04,4.3,7,4.6,7,5.8,5
2016/5/16 9:05,4.5,7,4.5,7,11.5,7
2016/5/16 9:06,4.9,7,4.9,7,11.6,6
2016/5/16 9:07,5.3,7,5.3,7,12.6,8
2016/5/16 9:08,5.3,7,5.3,7,11.3,8
2016/5/16 9:09,5.4,7,5.4,7,8.3,7
2016/5/16 9:10,5.4,7,5.4,7,7.6,8
2016/5/16 9:11,5.4,7,5.4,7,8.6,7
2016/5/16 9:12,5.3,7,5.4,7,8.2,8
2016/5/16 9:13,5.2,7,5.3,7,5.8,7
2016/5/16 9:14,5.4,7,5.4,7,6.9,5
2016/5/16 9:15,5.2,7,5.3,7,6.4,8
2016/5/16 9:16,5,7,5.2,7,9.3,6
2016/5/16 9:17,4.7,7,4.9,7,6.4,6
2016/5/16 9:18,4.5,7,4.6,7,6.4,6
2016/5/16 9:19,4.4,7,4.5,7,12.2,6
2016/5/16 9:20,4.4,7,4.4,7,8.3,7
2016/5/16 9:21,4.1,7,4.4,7,6.3,8
2016/5/16 9:22,4.1,7,4.2,7,8.3,6
2016/5/16 9:23,4.1,7,4.1,7,6.8,7
2016/5/16 9:24,4,7,4.1,7,6.3,7
2016/5/16 9:25,3.8,7,4,7,6.8,9
2016/5/16 9:26,3.6,7,3.8,7,5.6,6
2016/5/16 9:27,3.7,7,3.7,7,7.5,6
2016/5/16 9:28,3.8,7,3.8,7,8.4,8
2016/5/16 9:29,3.9,7,4,7,8.7,7
2016/5/16 9:30,3.8,7,3.9,7,10.8,6
2016/5/16 9:31,4.1,7,4.1,7,8.7,6
2016/5/16 9:32,4,7,4.1,7,10.2,5
2016/5/16 9:33,4.3,7,4.3,7,9.3,8
2016/5/16 9:34,4.7,7,4.7,7,9.9,8
2016/5/16 9:35,4.8,7,4.8,7,9.9,8
2016/5/16 9:36,5,7,5,7,9.1,6
2016/5/16 9:37,5.1,7,5.1,7,10.3,5
2016/5/16 9:38,5,7,5.2,7,8.4,5
2016/5/16 9:39,4.9,7,5,7,9,7
2016/5/16 9:40,4.9,7,5,7,10.7,6
2016/5/16 9:41,4.9,7,4.9,7,9.1,5
2016/5/16 9:42,5,7,5,7,8.9,6
2016/5/16 9:43,4.9,7,5.1,7,6.9,7
2016/5/16 9:44,4.5,7,4.8,7,6.4,8
2016/5/16 9:45,4.8,7,4.8,7,11.5,8
2016/5/16 9:46,4.8,7,4.9,7,11.8,8
2016/5/16 9:47,4.5,7,4.8,7,6.3,7
2016/5/16 9:48,4.7,7,4.7,7,13.9,7
2016/5/16 9:49,4.7,7,4.8,7,7.4,6
2016/5/16 9:50,4.8,7,4.8,7,9.7,6
2016/5/16 9:51,4.6,7,4.8,7,7.2,9
2016/5/16 9:52,4.5,7,4.6,7,7.4,7
2016/5/16 9:53,4.6,7,4.6,7,9.1,5
2016/5/16 9:54,4.5,7,4.6,7,4.8,5
2016/5/16 9:55,4.3,7,4.5,7,6,5
2016/5/16 9:56,4.1,7,4.2,7,7.6,7
2016/5/16 9:57,4.2,7,4.2,7,9,8
2016/5/16 9:58,3.9,7,4.1,7,8.5,8
2016/5/16 9:59,4,7,4.1,7,8.6,8
2016/5/16 10:00,4,7,4,7,9.4,6
2016/5/16 10:01,4.2,7,4.3,7,7.8,6
2016/5/16 10:02,4,7,4.2,7,4.1,9
2016/5/16 10:03,4,7,4,7,7.2,8
2016/5/16 10:04,4,7,4.1,7,8.7,8
2016/5/16 10:05,4.1,7,4.1,7,6.4,6
2016/5/16 10:06,4.2,7,4.2,7,7.2,6
2016/5/16 10:07,4.3,7,4.3,7,9.1,7
2016/5/16 10:08,4.5,7,4.5,7,8.6,7
2016/5/16 10:09,4.6,7,4.6,7,10.5,6
2016/5/16 10:10,4.3,7,4.6,7,7.4,4
2016/5/16 10:11,4.2,7,4.3,7,10,6
2016/5/16 10:12,4.5,6,4.5,7,10.8,7
2016/5/16 10:13,4.6,6,4.7,6,8.3,7
2016/5/16 10:14,4.7,6,4.7,6,10.3,7
2016/5/16 10:15,5,7,5,6,11.4,9
2016/5/16 10:16,4.9,7,5,6,6.5,8
2016/5/16 10:17,4.7,7,4.8,6,9.3,5
2016/5/16 10:18,4.9,7,4.9,6,8.3,6
2016/5/16 10:19,4.6,7,4.9,6,6.2,6
2016/5/16 10:20,4.7,7,4.7,6,6.5,7
2016/5/16 10:21,4.5,7,4.6,6,6.8,7
2016/5/16 10:22,4.6,7,4.6,6,10.6,5
2016/5/16 10:23,4.6,7,4.7,6,11.1,7
2016/5/16 10:24,4.7,7,4.7,6,10.6,6
2016/5/16 10:25,4.6,6,4.7,7,11.6,6
2016/5/16 10:26,4.9,6,4.9,7,9.3,5
2016/5/16 10:27,4.8,6,4.9,7,6.9,6
2016/5/16 10:28,4.6,6,4.8,7,6.3,8
2016/5/16 10:29,4.6,6,4.7,6,7.4,8
2016/5/16 10:30,4.6,6,4.7,6,6.7,7
2016/5/16 10:31,4.5,6,4.6,6,4.8,8
2016/5/16 10:32,4.2,6,4.5,6,4.9,4
2016/5/16 10:33,3.8,6,4.2,6,3.5,3
2016/5/16 10:34,3.6,6,3.8,6,4.8,8
2016/5/16 10:35,3.4,6,3.6,6,8.5,5
2016/5/16 10:36,3.7,6,3.7,6,13.4,5
2016/5/16 10:37,3.5,6,3.7,6,8.4,8
2016/5/16 10:38,3.5,6,3.5,6,6,6
2016/5/16 10:39,3.6,6,3.6,6,7.6,6
2016/5/16 10:40,3.6,6,3.6,6,7,7
2016/5/16 10:41,3.6,6,3.6,6,4.7,8
2016/5/16 10:42,3.8,6,3.8,6,8.5,7
2016/5/16 10:43,4,7,4,7,6,9
2016/5/16 10:44,4,7,4.1,7,6.8,8
2016/5/16 10:45,4.2,7,4.2,7,7.5,7
2016/5/16 10:46,3.7,7,4.1,7,6.5,6
2016/5/16 10:47,3.7,7,3.7,7,4.7,7
2016/5/16 10:48,3.7,7,3.7,7,4.7,4
2016/5/16 10:49,3.7,7,3.7,7,7.4,6
2016/5/16 10:50,3.8,7,3.8,7,7.4,5
2016/5/16 10:51,4.2,6,4.2,7,9.4,6
2016/5/16 10:52,4.3,6,4.3,6,9.4,7
2016/5/16 10:53,4.3,6,4.4,6,9.9,8
2016/5/16 10:54,4.6,6,4.6,6,8.7,6
2016/5/16 10:55,4.6,6,4.6,6,6.9,7
2016/5/16 10:56,4.6,6,4.7,7,9.2,6
2016/5/16 10:57,4.7,7,4.7,7,7.9,8
2016/5/16 10:58,4.7,7,4.8,7,5.7,7
2016/5/16 10:59,4.7,7,4.8,7,9.8,6
2016/5/16 11:00,4.5,7,4.7,7,7.6,7
2016/5/16 11:01,4.2,7,4.5,7,5,8
2016/5/16 11:02,4.2,7,4.2,7,8.4,8
2016/5/16 11:03,4.2,7,4.2,7,9.3,7
2016/5/16 11:04,4.1,7,4.2,7,7.1,8
2016/5/16 11:05,4.2,7,4.3,7,9.2,7
2016/5/16 11:06,4.3,7,4.3,7,6.2,7
2016/5/16 11:07,4.3,7,4.4,7,6,8
2016/5/16 11:08,4.6,7,4.6,7,10.8,6
2016/5/16 11:09,4.9,7,4.9,7,11,6
2016/5/16 11:10,5,7,5,7,8.4,6
2016/5/16 11:11,5,7,5.1,7,6.5,8
2016/5/16 11:12,5,7,5,7,8.4,8
2016/5/16 11:13,4.9,7,5.1,7,9.8,7
2016/5/16 11:14,4.8,7,4.9,7,6,5
2016/5/16 11:15,4.5,7,4.8,7,5.2,5
2016/5/16 11:16,4.3,7,4.4,7,6.1,8
2016/5/16 11:17,4.3,7,4.3,7,6,6
2016/5/16 11:18,4,7,4.3,7,5,6
2016/5/16 11:19,3.7,7,4,7,4.8,7
2016/5/16 11:20,3.4,7,3.7,7,3.7,8
2016/5/16 11:21,3.4,7,3.4,7,6.4,7
2016/5/16 11:22,3.5,7,3.5,7,11,7
2016/5/16 11:23,3.5,7,3.5,7,10.3,6
2016/5/16 11:24,3.5,7,3.6,7,6.1,6
2016/5/16 11:25,3.6,7,3.6,7,6.3,9
2016/5/16 11:26,3.7,7,3.7,7,6.9,8
2016/5/16 11:27,3.7,7,3.7,7,5.5,7
2016/5/16 11:28,3.9,7,3.9,7,8.6,7
2016/5/16 11:29,4.2,7,4.2,7,11.1,6
2016/5/16 11:30,4.9,6,4.9,6,11.9,6
2016/5/16 11:31,5.2,6,5.2,6,9.7,6
2016/5/16 11:32,4.8,6,5.2,6,6.1,6
2016/5/16 11:33,4.6,6,4.8,6,5.8,7
2016/5/16 11:34,4.7,6,4.7,6,9.5,6
2016/5/16 11:35,4.9,6,4.9,6,10.3,6
2016/5/16 11:36,5.1,6,5.1,6,8.5,6
2016/5/16 11:37,5.3,6,5.3,6,9.2,7
2016/5/16 11:38,5.2,7,5.3,6,7.9,7
2016/5/16 11:39,5,7,5.2,6,9.3,8
2016/5/16 11:40,4.5,7,4.9,6,5.4,7
2016/5/16 11:41,4,7,4.5,6,3.7,7
2016/5/16 11:42,4.1,7,4.1,6,6.4,7
2016/5/16 11:43,4.3,7,4.3,6,7.6,8
2016/5/16 11:44,4.3,7,4.4,6,7,7
2016/5/16 11:45,4.2,7,4.3,6,6.3,7
2016/5/16 11:46,3.8,7,4.2,6,4.5,4
2016/5/16 11:47,3.5,7,3.7,6,7.4,8